Location: Hilton Head Island
(32.2163°N, 80.7526°W)
Time: 21:47:36
(UTC-04:00)

Vanguard 2 Rocket - Pass Details

Date: 17 February 2026
Orbit: 553 x 3286 km, 32.9° (Epoch: 13 March)

Event Time Altitude Azimuth Distance (km) Brightness Sun altitude
Rises 11:22:54 0° 227° (SW) 7,098 11.6 42.5°
Reaches altitude 10° 11:27:42 10° 223° (SW) 6,188 11.5 43.0°
Maximum altitude 11:47:01 56° 152° (SSE) 3,400 11.9 44.4°
Drops below altitude 10° 12:01:40 10° 79° (E) 4,852 10.7 45.2°
Sets 12:04:53 0° 75° (ENE) 5,547 10.9 45.3°
